Location: Briis
(48.6240°N, 2.1211°E)
Time: 03:39:54
(UTC+00:00)

Cosmos 1727 Rocket - Pass Details

Date: 25 September 2020
Orbit: 960 x 997 km, 82.9° (Epoch: 22 October)

Event Time Altitude Azimuth Distance (km) Brightness Sun altitude
Exits shadow 03:09:25 16° 170° (S) 2,322 5.8 -25.1°
Maximum altitude 03:14:27 63° 94° (E) 1,100 4.4 -24.4°
Drops below altitude 10° 03:20:41 10° 15° (NNE) 2,755 6.9 -23.5°
Sets 03:23:13 0° 12° (NNE) 3,702 7.6 -23.1°
